Weather Roundup
Issued by NWS Springfield, MO

Home | Current Version | Previous Version | Text Only | Print | Product List | Glossary On
Versions: 1 2 3 4 5 6 7 8 9 10 11 12 13 14 15 16 17 18 19 20 21 22 23 24 25 26 27 28 29 30 31 32 33 34 35 36 37 38 39 40 41 42 43 44 45 46 47 48 49 50
000
NZUS99 KSGF 301657
HRRSGF

HOURLY WEATHER
NATIONAL WEATHER SERVICE SPRINGFIELD MO
1200 PM CDT THU MAR 30 2017

......SGF CWA......

CITY           SKY/WX    TMP DP  RH WIND       PRES   REMARKS
SPRINGFIELD    CLOUDY    50  41  71 SW20      29.61R
JOPLIN         CLOUDY    48  45  89 SW18G26   29.62S
WEST PLAINS    PTSUNNY   56  46  69 SW13G22   29.61F
ROLLA          CLOUDY    53  50  89 W10       29.57F
BRANSON        CLOUDY    48  37  66 SW10G16   29.66S

......SURROUNDING SGF CWA......

CITY           SKY/WX    TMP DP  RH WIND       PRES   REMARKS
CHANUTE        LGT RAIN  51  48  89 W14       29.58R FOG
PARSONS        CLOUDY    48  45  89 W16G23    29.62S
COFFEYVILLE    CLOUDY    47  45  93 W20G26    29.64S
EMPORIA        CLOUDY    46  45  96 NW16G24   29.62R
HARRISON AR    CLOUDY    49  40  71 SW13G21   29.66S

......KANSAS AND MISSOURI......

CITY           SKY/WX    TMP DP  RH WIND       PRES   REMARKS
KANSAS CTY INT CLOUDY    49  48  97 N12       29.57S
SEDALIA        CLOUDY    52  43  71 SW10      29.59F
ST JOSEPH      CLOUDY    48  47  96 N15       29.61S
ST LOUIS       TSTM      69  58  67 S9        29.51F
KIRKSVILLE     CLOUDY    50  49  96 N8        29.58F FOG
WICHITA        CLOUDY    43  40  89 NW20G29   29.72R
TOPEKA         CLOUDY    47  46  97 N20       29.61R
OLATHE         CLOUDY    50  47  89 CALM      29.57S

......TENNESSEE......

CITY           SKY/WX    TMP DP  RH WIND       PRES   REMARKS
MEMPHIS        NOT AVBL
NASHVILLE      CLOUDY    75  57  53 S14G25    29.74F

......ARKANSAS.......

CITY           SKY/WX    TMP DP  RH WIND       PRES   REMARKS
FAYETTEVILLE   CLOUDY    47  41  80 W10G18    29.69R
FT SMITH       CLOUDY    52  40  63 W18       29.73R
LITTLE ROCK    PTSUNNY   61  45  55 W17       29.73F

......OKLAHOMA.......

CITY           SKY/WX    TMP DP  RH WIND       PRES   REMARKS
TULSA          CLOUDY    50  41  71 W24G31    29.69F
PONCA CITY     CLOUDY    46  39  76 NW16G25   29.74R
MCALESTER      CLOUDY    54  40  59 W10       29.76S
OKLAHOMA CITY  CLOUDY    54  40  59 NW25G33   29.78R

......IOWA............

CITY           SKY/WX    TMP DP  RH WIND       PRES   REMARKS
DES MOINES     NOT AVBL
QUAD CITIES    CLOUDY    45  42  89 NE13      29.62F

......ILLINOIS........

CITY           SKY/WX    TMP DP  RH WIND       PRES   REMARKS
QUINCY         FOG       55  55 100 CALM      29.54R VSB 1/4
CHICAGO        HVY RAIN  43  40  89 E14       29.68F FOG



USA.gov is the U.S. government's official web portal to all federal, state and local government web resources and services.